User: anonymous   Login
Location: Unspecified
(0.0000°N, 0.0000°E)
Time: 04:22:42
(UTC+00:00)
Language:

AO-7 - Orbit

View from above orbital plane
View from above orbital plane
View from above satellite
View from above satellite

Ground track
Ground track

The orbit data is extracted from the following two-line orbital elements,

1 07530U 74089B   18054.46861394 -.00000015  00000-0  18565-3 0  9997
2 07530 101.6720  23.5635 0011937 194.0828 285.0288 12.53631314980347
Epoch (UTC): 23 February 2018 11:14:48
Eccentricity: 0.0011937
inclination: 101.6720°
perigee height: 1440 km
apogee height: 1458 km
right ascension of ascending node: 23.5635°
argument of perigee: 194.0828°
revolutions per day: 12.53631314
mean anomaly at epoch: 285.0288°
orbit number at epoch: 98034

The dashed part of the orbit path shows where the satellite is in the earth's shadow,  

DLR